Weather History for Eureka Airport, NV

Change the Weather History Date:

Saturday, February 8, 2014

  Actual Average Record
Temperature  
Mean Temperature 40 °F -  
Max Temperature 46 °F - - ()
Min Temperature 33 °F - - ()
Degree Days  
Heating Degree Days 26    
Moisture  
Dew Point 31 °F    
Average Humidity 71    
Maximum Humidity 87    
Minimum Humidity 53    
Precipitation  
Precipitation 0.02 in - - ()
Sea Level Pressure  
Sea Level Pressure 30.04 in    
Wind  
Wind Speed 7 mph (SSW)    
Max Wind Speed 16 mph    
Max Gust Speed 23 mph    
Visibility 10 miles    
Events      
T = Trace of Precipitation, MM = Missing Value Source: NWS Daily Summary

Daily Weather History Graph

Daily Weather History Graph

Search for Another Location

Airport:

Trip Planner

Search our weather history database for the weather conditions in past years. The results will help you decide how hot, cold, wet, or windy it might be!

Date:

Astronomy

Feb. 08, 2014 Rise Set
Actual Time 6:44 AM PST 5:12 PM PST
Civil Twilight 6:16 AM PST 5:40 PM PST
Nautical Twilight 5:44 AM PST 6:12 PM PST
Astronomical Twilight 5:13 AM PST 6:43 PM PST
Moon 12:10 PM PST (2/8) 2:00 AM PST (2/8)
Length of Visible Light 11h 23m
Length of Day
10h 28m
Waxing Gibbous, 69% of the Moon is Illuminated
Feb 8
Waxing Gibbous
Feb 14
Full
Feb 22
Last Quarter
Mar 1
New
Mar 8
First Quarter

Hourly Weather History & Observations

Time (PST) Temp. Windchill Dew Point Humidity Pressure Visibility Wind Dir Wind Speed Gust Speed Precip Events Conditions
12:15 AM 37.4 °F 31.4 °F 28.4 °F 70% 29.92 in 10.0 mi South 8.1 mph - N/A   Overcast
12:35 AM 39.2 °F 33.6 °F 28.4 °F 65% 29.92 in 10.0 mi SSW 8.1 mph - N/A   Overcast
12:55 AM 39.2 °F - 28.4 °F 65% 29.93 in 10.0 mi Calm Calm - N/A   Overcast
1:15 AM 37.4 °F - 28.4 °F 70% 29.93 in 10.0 mi Calm Calm - N/A   Overcast
1:35 AM 37.4 °F - 28.4 °F 70% 29.94 in 10.0 mi Calm Calm - N/A   Overcast
1:55 AM 39.2 °F 37.0 °F 28.4 °F 65% 29.95 in 10.0 mi West 3.5 mph - N/A   Overcast
2:15 AM 41.0 °F 37.1 °F 28.4 °F 61% 29.96 in 10.0 mi West 5.8 mph - N/A   Overcast
2:35 AM 41.0 °F 37.1 °F 28.4 °F 61% 29.96 in 10.0 mi South 5.8 mph - N/A   Overcast
2:55 AM 39.2 °F 35.9 °F 28.4 °F 65% 29.97 in 10.0 mi West 4.6 mph - N/A   Overcast
3:15 AM 39.2 °F 35.0 °F 28.4 °F 65% 29.97 in 10.0 mi WSW 5.8 mph - N/A   Overcast
3:35 AM 39.2 °F 33.0 °F 28.4 °F 65% 29.98 in 10.0 mi WSW 9.2 mph - N/A   Mostly Cloudy
3:55 AM 39.2 °F 34.2 °F 28.4 °F 65% 29.99 in 10.0 mi WSW 6.9 mph - N/A   Mostly Cloudy
4:15 AM 39.2 °F 34.2 °F 28.4 °F 65% 30.00 in 10.0 mi West 6.9 mph - N/A   Mostly Cloudy
4:35 AM 41.0 °F 34.3 °F 28.4 °F 61% 30.00 in 10.0 mi WSW 11.5 mph 18.4 mph N/A   Mostly Cloudy
4:55 AM 41.0 °F 35.8 °F 28.4 °F 61% 30.01 in 10.0 mi West 8.1 mph - N/A   Partly Cloudy
5:15 AM 39.2 °F 33.0 °F 28.4 °F 65% 30.02 in 10.0 mi West 9.2 mph - N/A   Clear
5:35 AM 39.2 °F 34.2 °F 28.4 °F 65% 30.02 in 10.0 mi West 6.9 mph - N/A   Clear
5:55 AM 39.2 °F 34.2 °F 26.6 °F 61% 30.03 in 10.0 mi West 6.9 mph - N/A   Scattered Clouds
6:15 AM 39.2 °F 33.6 °F 28.4 °F 65% 30.02 in 10.0 mi West 8.1 mph - N/A   Partly Cloudy
6:35 AM 39.2 °F 34.2 °F 28.4 °F 65% 30.02 in 10.0 mi West 6.9 mph - N/A   Clear
6:55 AM 37.4 °F 33.8 °F 26.6 °F 65% 30.04 in 10.0 mi West 4.6 mph - N/A   Clear
7:15 AM 33.8 °F 29.6 °F 26.6 °F 75% 30.04 in 10.0 mi SE 4.6 mph - N/A   Clear
7:35 AM 37.4 °F 34.9 °F 26.6 °F 65% 30.05 in 10.0 mi SE 3.5 mph - N/A   Partly Cloudy
7:55 AM 37.4 °F 29.8 °F 28.4 °F 70% 30.06 in 10.0 mi SSE 11.5 mph 17.3 mph N/A   Mostly Cloudy
8:15 AM 39.2 °F 33.0 °F 28.4 °F 65% 30.06 in 10.0 mi SE 9.2 mph 21.9 mph N/A   Mostly Cloudy
8:35 AM 39.2 °F 32.5 °F 28.4 °F 65% 30.07 in 10.0 mi SSE 10.4 mph - N/A   Mostly Cloudy
8:55 AM 39.2 °F 32.5 °F 28.4 °F 65% 30.07 in 10.0 mi SE 10.4 mph - N/A   Overcast
9:15 AM 39.2 °F 33.0 °F 28.4 °F 65% 30.07 in 10.0 mi South 9.2 mph - N/A   Overcast
9:35 AM 41.0 °F 35.2 °F 28.4 °F 61% 30.08 in 10.0 mi SSE 9.2 mph - N/A   Overcast
9:55 AM 41.0 °F 34.3 °F 28.4 °F 61% 30.08 in 10.0 mi South 11.5 mph - N/A   Overcast
10:15 AM 41.0 °F 33.5 °F 28.4 °F 61% 30.08 in 10.0 mi SSE 13.8 mph - N/A   Overcast
10:35 AM 41.0 °F 35.2 °F 30.2 °F 65% 30.08 in 10.0 mi SE 9.2 mph - N/A   Overcast
10:55 AM 42.8 °F 36.6 °F 30.2 °F 61% 30.08 in 10.0 mi SE 11.5 mph - N/A   Overcast
11:15 AM 42.8 °F 37.0 °F 30.2 °F 61% 30.07 in 10.0 mi SSE 10.4 mph - N/A   Overcast
11:35 AM 44.6 °F 38.1 °F 30.2 °F 57% 30.07 in 10.0 mi SE 13.8 mph - N/A   Overcast
11:55 AM 44.6 °F 38.4 °F 30.2 °F 57% 30.05 in 10.0 mi SE 12.7 mph - N/A   Overcast
12:15 PM 46.4 °F 40.7 °F 30.2 °F 53% 30.04 in 10.0 mi SE 12.7 mph - N/A   Overcast
12:35 PM 46.4 °F 41.9 °F 30.2 °F 53% 30.03 in 10.0 mi ESE 9.2 mph - N/A   Overcast
12:55 PM 44.6 °F 38.8 °F 30.2 °F 57% 30.02 in 10.0 mi SSE 11.5 mph - N/A   Mostly Cloudy
1:15 PM 42.8 °F 37.5 °F 32.0 °F 66% 30.03 in 10.0 mi SSE 9.2 mph - N/A   Mostly Cloudy
1:35 PM 39.2 °F 34.2 °F 32.0 °F 75% 30.03 in 3.0 mi East 6.9 mph - 0.01 in   Mostly Cloudy
1:55 PM 41.0 °F 39.0 °F 33.8 °F 76% 30.04 in 4.0 mi East 3.5 mph - 0.01 in   Mostly Cloudy
2:15 PM 39.2 °F 33.0 °F 35.6 °F 87% 30.03 in 7.0 mi South 9.2 mph - N/A   Scattered Clouds
2:35 PM 39.2 °F 33.6 °F 35.6 °F 87% 30.04 in 10.0 mi SSE 8.1 mph - N/A   Mostly Cloudy
2:55 PM 41.0 °F 35.8 °F 35.6 °F 81% 30.03 in 10.0 mi ESE 8.1 mph - N/A   Overcast
3:15 PM 39.2 °F 34.2 °F 33.8 °F 81% 30.02 in 10.0 mi SE 6.9 mph - N/A   Overcast
3:35 PM 39.2 °F 33.6 °F 33.8 °F 81% 30.01 in 10.0 mi SE 8.1 mph - N/A   Overcast
3:55 PM 39.2 °F 33.0 °F 33.8 °F 81% 30.01 in 10.0 mi ESE 9.2 mph - 0.01 in   Mostly Cloudy
4:15 PM 41.0 °F 35.8 °F 32.0 °F 70% 30.01 in 10.0 mi ESE 8.1 mph - N/A   Mostly Cloudy
4:35 PM 39.2 °F 35.9 °F 32.0 °F 75% 30.02 in 10.0 mi West 4.6 mph - N/A   Overcast
4:55 PM 39.2 °F - 33.8 °F 81% 30.02 in 10.0 mi Calm Calm - N/A   Overcast
5:15 PM 37.4 °F 34.9 °F 32.0 °F 81% 30.03 in 10.0 mi North 3.5 mph - N/A   Overcast
5:35 PM 37.4 °F - 32.0 °F 81% 30.04 in 10.0 mi Calm Calm - N/A   Overcast
5:55 PM 37.4 °F - 32.0 °F 81% 30.05 in 10.0 mi Calm Calm - N/A   Overcast
6:15 PM 37.4 °F 34.9 °F 32.0 °F 81% 30.06 in 10.0 mi SW 3.5 mph - N/A   Overcast
6:35 PM 39.2 °F 33.6 °F 32.0 °F 75% 30.07 in 10.0 mi WSW 8.1 mph - N/A   Overcast
6:55 PM 39.2 °F 31.2 °F 32.0 °F 75% 30.07 in 10.0 mi WSW 13.8 mph - N/A   Overcast
7:15 PM 41.0 °F 33.5 °F 33.8 °F 76% 30.07 in 9.0 mi West 13.8 mph - N/A   Overcast
7:35 PM 41.0 °F 32.8 °F 33.8 °F 76% 30.08 in 10.0 mi West 16.1 mph 23.0 mph N/A   Overcast
7:55 PM 41.0 °F 34.3 °F 33.8 °F 76% 30.08 in 10.0 mi West 11.5 mph 19.6 mph N/A   Overcast
8:15 PM 41.0 °F 34.3 °F 33.8 °F 76% 30.08 in 10.0 mi West 11.5 mph - N/A   Overcast
8:35 PM 41.0 °F 35.2 °F 33.8 °F 76% 30.08 in 10.0 mi West 9.2 mph - N/A   Overcast
8:55 PM 41.0 °F 36.4 °F 33.8 °F 76% 30.07 in 10.0 mi WSW 6.9 mph - N/A   Overcast
9:15 PM 39.2 °F 35.0 °F 33.8 °F 81% 30.07 in 10.0 mi SW 5.8 mph - N/A   Overcast
9:35 PM 39.2 °F 33.6 °F 33.8 °F 81% 30.10 in 8.0 mi South 8.1 mph - N/A   Overcast
9:55 PM 39.2 °F 35.0 °F 33.8 °F 81% 30.10 in 10.0 mi South 5.8 mph - N/A   Overcast
10:15 PM 39.2 °F 35.0 °F 35.6 °F 87% 30.10 in 10.0 mi South 5.8 mph - N/A   Overcast
10:35 PM 39.2 °F 33.0 °F 33.8 °F 81% 30.10 in 10.0 mi WSW 9.2 mph - N/A   Overcast
10:55 PM 39.2 °F 32.5 °F 33.8 °F 81% 30.10 in 10.0 mi WSW 10.4 mph - N/A   Overcast
11:15 PM 41.0 °F 36.4 °F 35.6 °F 81% 30.11 in 10.0 mi WSW 6.9 mph - N/A   Mostly Cloudy
11:35 PM 39.2 °F 37.0 °F 33.8 °F 81% 30.11 in 10.0 mi SE 3.5 mph - N/A   Clear
11:55 PM 39.2 °F 35.9 °F 33.8 °F 81% 30.11 in 10.0 mi SSE 4.6 mph - N/A   Clear